Find Skylink-2

NORAD ID: 62672 Int'l Des: NNA 2025-009 Owner: HELLO Country: TR operational
LEOCIRCULARRETROGRADESSO

Live Position

Loading 3D Globe...

About Skylink-2

Description loading...

Upcoming Passes

Passes for default location (London). Set your location on the main map for personalized predictions.

Altitude History

Loading altitude history...

Two-Line Element Set

1 62672U 25009BR 26106.45692536 .00002466 00000-0 10958-3 0 9998
2 62672 97.3967 186.5134 0004784 172.2339 187.8972 15.22458708126995
Epoch: Apr 16, 2026 • Age: 20 hours

Current Status

Altitude 517.6 km
Velocity 7.60 km/s
Sub-Earth Point -42.52°S, 120.56°W
Launch Date Jan 14, 2025
Age 1.2 years
Type other

Technical Details

Classification Payload
Mass 0.75 kg
Dry Mass 0.75 kg
Total Mass 0.75 kg
Length 0.15 m
Diameter 0.05 m
Span 0.35 m
Shape Box+ 2 pan
Manufacturer HELLO
Bus Type PocketQube 3P
Phase Status In Orbit
Owner/State HELLO/TR

Most Searched